Time,TemperatureF,DewpointF,PressureIn,WindDirection,WindDirectionDegrees,WindSpeedMPH,WindSpeedGustMPH,Humidity,HourlyPrecipIn,Conditions,Clouds,dailyrainin,SoftwareType,DateUTC
2013-06-20 00:01:00,59.8,47.6,30.01,NNE,32,0.0,1.0,64,0.00,,,0.00,WeatherCatV1.14B232,2013-06-20 07:01:00,
2013-06-20 00:06:00,59.9,47.7,30.01,SSW,207,0.0,2.0,64,0.00,,,0.00,WeatherCatV1.14B232,2013-06-20 07:06:00,
2013-06-20 00:11:00,59.8,47.6,30.01,NNW,338,0.0,1.0,64,0.00,,,0.00,WeatherCatV1.14B232,2013-06-20 07:11:00,
2013-06-20 00:16:00,59.7,47.5,30.01,NNW,342,0.0,0.0,64,0.00,,,0.00,WeatherCatV1.14B232,2013-06-20 07:16:00,
2013-06-20 00:21:00,59.6,47.8,30.01,NE,34,0.0,1.0,65,0.00,,,0.00,WeatherCatV1.14B232,2013-06-20 07:21:00,
2013-06-20 00:26:00,59.5,47.7,30.01,NNE,27,2.0,2.0,65,0.00,,,0.00,WeatherCatV1.14B232,2013-06-20 07:26:00,
2013-06-20 00:31:00,59.5,47.7,30.01,NNE,21,0.0,1.0,65,0.00,,,0.00,WeatherCatV1.14B232,2013-06-20 07:31:00,
2013-06-20 00:36:00,59.5,47.7,30.01,NE,41,0.0,1.0,65,0.00,,,0.00,WeatherCatV1.14B232,2013-06-20 07:36:00,
2013-06-20 00:41:00,59.4,47.6,30.01,SSW,211,0.0,1.0,65,0.00,,,0.00,WeatherCatV1.14B232,2013-06-20 07:41:00,
2013-06-20 00:46:00,59.3,47.5,30.00,WSW,245,0.0,0.0,65,0.00,,,0.00,WeatherCatV1.14B232,2013-06-20 07:46:00,
2013-06-20 00:51:00,59.3,47.5,30.00,WSW,245,0.0,1.0,65,0.00,,,0.00,WeatherCatV1.14B232,2013-06-20 07:51:00,
2013-06-20 00:56:00,59.3,47.1,30.00,NE,40,1.0,1.0,64,0.00,,,0.00,WeatherCatV1.14B232,2013-06-20 07:56:00,
2013-06-20 01:01:00,59.4,47.2,30.00,NNE,23,0.0,1.0,64,0.00,,,0.00,WeatherCatV1.14B232,2013-06-20 08:01:00,
2013-06-20 01:06:00,59.4,47.6,30.00,South,184,0.0,1.0,65,0.00,,,0.00,WeatherCatV1.14B232,2013-06-20 08:06:00,
2013-06-20 01:11:00,59.2,47.4,30.00,ESE,103,0.0,0.0,65,0.00,,,0.00,WeatherCatV1.14B232,2013-06-20 08:11:00,
2013-06-20 01:16:00,59.0,47.2,30.00,ESE,103,0.0,0.0,65,0.00,,,0.00,WeatherCatV1.14B232,2013-06-20 08:16:00,
2013-06-20 01:21:00,59.0,47.2,30.00,NE,44,0.0,1.0,65,0.00,,,0.00,WeatherCatV1.14B232,2013-06-20 08:21:00,
2013-06-20 01:26:00,58.8,47.5,30.00,East,88,0.0,0.0,66,0.00,,,0.00,WeatherCatV1.14B232,2013-06-20 08:26:00,
2013-06-20 01:31:00,58.6,47.3,30.00,East,88,0.0,0.0,66,0.00,,,0.00,WeatherCatV1.14B232,2013-06-20 08:31:00,
2013-06-20 01:36:00,58.6,47.3,29.99,East,88,0.0,0.0,66,0.00,,,0.00,WeatherCatV1.14B232,2013-06-20 08:36:00,
2013-06-20 01:41:00,58.5,47.6,29.99,East,88,0.0,0.0,67,0.00,,,0.00,WeatherCatV1.14B232,2013-06-20 08:41:00,
2013-06-20 01:46:00,58.4,47.5,29.99,East,88,0.0,0.0,67,0.00,,,0.00,WeatherCatV1.14B232,2013-06-20 08:46:00,
2013-06-20 01:51:00,58.2,47.3,29.99,East,88,0.0,0.0,67,0.00,,,0.00,WeatherCatV1.14B232,2013-06-20 08:51:00,
2013-06-20 01:56:00,58.2,47.3,29.99,East,88,0.0,0.0,67,0.00,,,0.00,WeatherCatV1.14B232,2013-06-20 08:56:00,
2013-06-20 02:01:00,58.3,47.4,29.99,East,88,0.0,0.0,67,0.00,,,0.00,WeatherCatV1.14B232,2013-06-20 09:01:00,
2013-06-20 02:06:00,58.2,47.3,29.99,East,88,0.0,0.0,67,0.00,,,0.00,WeatherCatV1.14B232,2013-06-20 09:06:00,
2013-06-20 02:07:00,58.1,47.2,29.99,East,88,0.0,0.0,67,0.00,,,0.00,WeatherCatV1.14B232,2013-06-20 09:07:00,
2013-06-20 02:12:00,58.0,47.5,29.99,ESE,106,0.0,0.0,68,0.00,,,0.00,WeatherCatV1.14B232,2013-06-20 09:12:00,
2013-06-20 02:17:00,58.0,47.5,29.99,ESE,106,0.0,0.0,68,0.00,,,0.00,WeatherCatV1.14B232,2013-06-20 09:17:00,
2013-06-20 02:22:00,57.8,47.3,29.99,ESE,105,0.0,0.0,68,0.00,,,0.00,WeatherCatV1.14B232,2013-06-20 09:22:00,
2013-06-20 02:27:00,57.6,47.5,29.99,ESE,105,0.0,0.0,69,0.00,,,0.00,WeatherCatV1.14B232,2013-06-20 09:27:00,
2013-06-20 02:32:00,57.3,47.2,29.99,NE,46,0.0,1.0,69,0.00,,,0.00,WeatherCatV1.14B232,2013-06-20 09:32:00,
2013-06-20 02:37:00,57.3,47.6,29.99,NE,46,0.0,0.0,70,0.00,,,0.00,WeatherCatV1.14B232,2013-06-20 09:37:00,
2013-06-20 02:42:00,57.2,47.1,29.98,NE,46,0.0,1.0,69,0.00,,,0.00,WeatherCatV1.14B232,2013-06-20 09:42:00,
2013-06-20 02:47:00,57.2,47.1,29.98,NE,38,0.0,1.0,69,0.00,,,0.00,WeatherCatV1.14B232,2013-06-20 09:47:00,
2013-06-20 02:52:00,57.3,47.2,29.98,NE,38,0.0,0.0,69,0.00,,,0.00,WeatherCatV1.14B232,2013-06-20 09:52:00,
2013-06-20 02:57:00,57.3,47.2,29.98,NE,39,0.0,0.0,69,0.00,,,0.00,WeatherCatV1.14B232,2013-06-20 09:57:00,
2013-06-20 03:02:00,57.2,47.1,29.98,NE,38,0.0,0.0,69,0.00,,,0.00,WeatherCatV1.14B232,2013-06-20 10:02:00,
2013-06-20 03:07:00,57.1,47.0,29.98,NE,38,0.0,0.0,69,0.00,,,0.00,WeatherCatV1.14B232,2013-06-20 10:07:00,
2013-06-20 03:12:00,57.1,47.0,29.98,NE,39,0.0,0.0,69,0.00,,,0.00,WeatherCatV1.14B232,2013-06-20 10:12:00,
2013-06-20 03:17:00,57.0,47.3,29.98,NE,37,0.0,0.0,70,0.00,,,0.00,WeatherCatV1.14B232,2013-06-20 10:17:00,
2013-06-20 03:22:00,57.0,46.9,29.97,NE,37,0.0,0.0,69,0.00,,,0.00,WeatherCatV1.14B232,2013-06-20 10:22:00,
2013-06-20 03:27:00,57.1,47.0,29.97,ENE,62,0.0,0.0,69,0.00,,,0.00,WeatherCatV1.14B232,2013-06-20 10:27:00,
2013-06-20 03:32:00,57.3,46.8,29.97,ENE,62,0.0,0.0,68,0.00,,,0.00,WeatherCatV1.14B232,2013-06-20 10:32:00,
2013-06-20 03:37:00,57.3,46.8,29.97,ENE,62,0.0,0.0,68,0.00,,,0.00,WeatherCatV1.14B232,2013-06-20 10:37:00,
2013-06-20 03:42:00,57.3,47.2,29.97,ENE,62,0.0,0.0,69,0.00,,,0.00,WeatherCatV1.14B232,2013-06-20 10:42:00,
2013-06-20 03:47:00,57.1,47.0,29.97,ENE,62,0.0,0.0,69,0.00,,,0.00,WeatherCatV1.14B232,2013-06-20 10:47:00,
2013-06-20 03:52:00,57.0,46.9,29.97,ENE,62,0.0,0.0,69,0.00,,,0.00,WeatherCatV1.14B232,2013-06-20 10:52:00,
2013-06-20 03:57:00,56.9,46.8,29.97,ENE,62,0.0,1.0,69,0.00,,,0.00,WeatherCatV1.14B232,2013-06-20 10:57:00,
2013-06-20 04:02:00,56.9,47.2,29.97,ENE,62,0.0,1.0,70,0.00,,,0.00,WeatherCatV1.14B232,2013-06-20 11:02:00,
2013-06-20 04:07:00,56.7,47.4,29.97,ENE,62,0.0,0.0,71,0.00,,,0.00,WeatherCatV1.14B232,2013-06-20 11:07:00,
2013-06-20 04:12:00,56.5,47.2,29.97,West,271,0.0,1.0,71,0.00,,,0.00,WeatherCatV1.14B232,2013-06-20 11:12:00,
2013-06-20 04:17:00,56.2,47.3,29.97,West,271,0.0,0.0,72,0.00,,,0.00,WeatherCatV1.14B232,2013-06-20 11:17:00,
2013-06-20 04:22:00,56.2,46.9,29.97,NNE,15,0.0,0.0,71,0.00,,,0.00,WeatherCatV1.14B232,2013-06-20 11:22:00,
2013-06-20 04:27:00,56.4,47.1,29.97,NNE,15,0.0,0.0,71,0.00,,,0.00,WeatherCatV1.14B232,2013-06-20 11:27:00,
2013-06-20 04:32:00,56.3,47.0,29.97,NNE,15,0.0,0.0,71,0.00,,,0.00,WeatherCatV1.14B232,2013-06-20 11:32:00,
2013-06-20 04:37:00,56.1,47.2,29.96,NNE,15,0.0,0.0,72,0.00,,,0.00,WeatherCatV1.14B232,2013-06-20 11:37:00,
2013-06-20 04:42:00,55.9,47.4,29.96,NNE,15,0.0,0.0,73,0.00,,,0.00,WeatherCatV1.14B232,2013-06-20 11:42:00,
2013-06-20 04:47:00,55.7,47.5,29.96,NNE,15,0.0,0.0,74,0.00,,,0.00,WeatherCatV1.14B232,2013-06-20 11:47:00,
2013-06-20 04:52:00,55.6,48.2,29.97,NNE,15,0.0,0.0,76,0.00,,,0.00,WeatherCatV1.14B232,2013-06-20 11:52:00,
2013-06-20 04:57:00,55.4,49.3,29.97,ENE,68,0.0,0.0,80,0.00,,,0.00,WeatherCatV1.14B232,2013-06-20 11:57:00,
2013-06-20 05:02:00,55.3,50.2,29.97,ENE,68,0.0,1.0,83,0.00,,,0.00,WeatherCatV1.14B232,2013-06-20 12:02:00,
2013-06-20 05:07:00,55.2,50.1,29.97,ENE,69,0.0,1.0,83,0.00,,,0.00,WeatherCatV1.14B232,2013-06-20 12:07:00,
2013-06-20 05:12:00,55.2,48.1,29.97,ENE,69,0.0,0.0,77,0.00,,,0.00,WeatherCatV1.14B232,2013-06-20 12:12:00,
2013-06-20 05:17:00,55.5,48.1,29.97,ENE,69,0.0,0.0,76,0.00,,,0.00,WeatherCatV1.14B232,2013-06-20 12:17:00,
2013-06-20 05:22:00,55.6,47.8,29.97,ENE,69,0.0,0.0,75,0.00,,,0.00,WeatherCatV1.14B232,2013-06-20 12:22:00,
2013-06-20 05:27:00,55.8,47.3,29.97,ENE,68,0.0,0.0,73,0.00,,,0.00,WeatherCatV1.14B232,2013-06-20 12:27:00,
2013-06-20 05:32:00,56.1,47.2,29.97,ENE,68,0.0,0.0,72,0.00,,,0.00,WeatherCatV1.14B232,2013-06-20 12:32:00,
2013-06-20 05:37:00,56.0,47.5,29.97,ENE,69,0.0,0.0,73,0.00,,,0.00,WeatherCatV1.14B232,2013-06-20 12:37:00,
2013-06-20 05:42:00,55.8,47.6,29.97,ENE,69,0.0,0.0,74,0.00,,,0.00,WeatherCatV1.14B232,2013-06-20 12:42:00,
2013-06-20 05:47:00,55.6,48.2,29.97,ENE,69,0.0,0.0,76,0.00,,,0.00,WeatherCatV1.14B232,2013-06-20 12:47:00,
2013-06-20 05:52:00,55.5,48.1,29.97,ENE,68,0.0,0.0,76,0.00,,,0.00,WeatherCatV1.14B232,2013-06-20 12:52:00,
2013-06-20 05:57:00,55.5,48.1,29.98,ENE,68,0.0,0.0,76,0.00,,,0.00,WeatherCatV1.14B232,2013-06-20 12:57:00,
2013-06-20 06:02:00,55.7,48.6,29.97,ENE,68,0.0,0.0,77,0.00,,,0.00,WeatherCatV1.14B232,2013-06-20 13:02:00,
2013-06-20 06:07:00,55.6,48.5,29.97,ENE,68,0.0,0.0,77,0.00,,,0.00,WeatherCatV1.14B232,2013-06-20 13:07:00,
2013-06-20 06:12:00,55.5,48.8,29.98,ENE,68,0.0,0.0,78,0.00,,,0.00,WeatherCatV1.14B232,2013-06-20 13:12:00,
2013-06-20 06:17:00,55.5,49.4,29.98,ENE,68,0.0,0.0,80,0.00,,,0.00,WeatherCatV1.14B232,2013-06-20 13:17:00,
2013-06-20 06:22:00,55.3,49.9,29.98,ENE,68,0.0,0.0,82,0.00,,,0.00,WeatherCatV1.14B232,2013-06-20 13:22:00,
2013-06-20 06:27:00,55.1,50.0,29.98,ENE,68,0.0,0.0,83,0.00,,,0.00,WeatherCatV1.14B232,2013-06-20 13:27:00,
2013-06-20 06:32:00,54.8,50.1,29.98,ENE,68,0.0,0.0,84,0.00,,,0.00,WeatherCatV1.14B232,2013-06-20 13:32:00,
2013-06-20 06:37:00,54.7,50.3,29.98,ENE,68,0.0,0.0,85,0.00,,,0.00,WeatherCatV1.14B232,2013-06-20 13:37:00,
2013-06-20 06:42:00,55.0,50.3,29.98,ENE,68,0.0,0.0,84,0.00,,,0.00,WeatherCatV1.14B232,2013-06-20 13:42:00,
2013-06-20 06:47:00,55.6,50.5,29.98,ENE,68,0.0,0.0,83,0.00,,,0.00,WeatherCatV1.14B232,2013-06-20 13:47:00,
2013-06-20 06:52:00,56.0,50.6,29.98,ENE,68,0.0,0.0,82,0.00,,,0.00,WeatherCatV1.14B232,2013-06-20 13:52:00,
2013-06-20 06:57:00,56.0,51.2,29.99,ENE,69,0.0,1.0,84,0.00,,,0.00,WeatherCatV1.14B232,2013-06-20 13:57:00,
2013-06-20 07:02:00,55.4,51.0,29.99,SW,232,0.0,1.0,85,0.00,,,0.00,WeatherCatV1.14B232,2013-06-20 14:02:00,
2013-06-20 07:07:00,55.1,51.0,29.99,SW,228,1.0,2.0,86,0.00,,,0.00,WeatherCatV1.14B232,2013-06-20 14:07:00,
2013-06-20 07:12:00,54.9,50.5,29.98,SW,230,0.0,1.0,85,0.00,,,0.00,WeatherCatV1.14B232,2013-06-20 14:12:00,
2013-06-20 07:17:00,54.9,50.2,29.98,SW,224,0.0,0.0,84,0.00,,,0.00,WeatherCatV1.14B232,2013-06-20 14:17:00,
2013-06-20 07:22:00,55.1,50.0,29.98,SW,214,0.0,1.0,83,0.00,,,0.00,WeatherCatV1.14B232,2013-06-20 14:22:00,
2013-06-20 07:27:00,55.4,50.0,29.99,SW,226,0.0,1.0,82,0.00,,,0.00,WeatherCatV1.14B232,2013-06-20 14:27:00,
2013-06-20 07:32:00,55.7,50.3,29.99,South,176,0.0,0.0,82,0.00,,,0.00,WeatherCatV1.14B232,2013-06-20 14:32:00,
2013-06-20 07:37:00,56.0,50.2,29.99,WSW,240,0.0,0.0,81,0.00,,,0.00,WeatherCatV1.14B232,2013-06-20 14:37:00,
2013-06-20 07:42:00,56.2,50.1,29.99,SW,234,0.0,1.0,80,0.00,,,0.00,WeatherCatV1.14B232,2013-06-20 14:42:00,
2013-06-20 07:47:00,56.5,51.1,29.99,SW,228,0.0,0.0,82,0.00,,,0.00,WeatherCatV1.14B232,2013-06-20 14:47:00,
2013-06-20 07:52:00,56.7,51.9,29.99,SW,228,0.0,0.0,84,0.00,,,0.00,WeatherCatV1.14B232,2013-06-20 14:52:00,
2013-06-20 07:57:00,56.8,51.7,29.99,SW,226,0.0,1.0,83,0.00,,,0.00,WeatherCatV1.14B232,2013-06-20 14:57:00,
2013-06-20 08:02:00,56.9,51.5,29.99,WSW,247,0.0,1.0,82,0.00,,,0.00,WeatherCatV1.14B232,2013-06-20 15:02:00,
2013-06-20 08:07:00,56.9,51.5,29.99,SW,232,0.0,1.0,82,0.00,,,0.00,WeatherCatV1.14B232,2013-06-20 15:07:00,
2013-06-20 08:12:00,56.9,51.5,29.99,SW,218,0.0,1.0,82,0.00,,,0.00,WeatherCatV1.14B232,2013-06-20 15:12:00,
2013-06-20 08:17:00,56.9,51.5,30.00,SW,236,1.0,2.0,82,0.00,,,0.00,WeatherCatV1.14B232,2013-06-20 15:17:00,
2013-06-20 08:22:00,57.0,51.2,30.00,SW,234,0.0,1.0,81,0.00,,,0.00,WeatherCatV1.14B232,2013-06-20 15:22:00,
2013-06-20 08:27:00,57.3,51.2,29.99,WSW,239,0.0,1.0,80,0.00,,,0.00,WeatherCatV1.14B232,2013-06-20 15:27:00,
2013-06-20 08:32:00,57.5,51.7,29.99,SW,214,0.0,3.0,81,0.00,,,0.00,WeatherCatV1.14B232,2013-06-20 15:32:00,
2013-06-20 08:37:00,57.8,51.7,29.99,SW,224,0.0,3.0,80,0.00,,,0.00,WeatherCatV1.14B232,2013-06-20 15:37:00,
2013-06-20 08:42:00,58.1,52.0,29.99,SW,223,2.0,2.0,80,0.00,,,0.00,WeatherCatV1.14B232,2013-06-20 15:42:00,
2013-06-20 08:47:00,58.3,51.5,29.99,SW,217,2.0,3.0,78,0.00,,,0.00,WeatherCatV1.14B232,2013-06-20 15:47:00,
2013-06-20 08:52:00,58.6,51.4,29.99,WSW,241,2.0,4.0,77,0.00,,,0.00,WeatherCatV1.14B232,2013-06-20 15:52:00,
2013-06-20 08:57:00,58.7,51.9,29.99,SW,233,2.0,4.0,78,0.00,,,0.00,WeatherCatV1.14B232,2013-06-20 15:57:00,
2013-06-20 09:02:00,59.1,51.9,29.99,WSW,242,1.0,5.0,77,0.00,,,0.00,WeatherCatV1.14B232,2013-06-20 16:02:00,
2013-06-20 09:07:00,59.4,51.8,29.99,SW,227,2.0,3.0,76,0.00,,,0.00,WeatherCatV1.14B232,2013-06-20 16:07:00,
2013-06-20 09:12:00,59.4,51.5,30.00,WSW,239,1.0,3.0,75,0.00,,,0.00,WeatherCatV1.14B232,2013-06-20 16:12:00,
2013-06-20 09:17:00,59.4,51.5,29.99,South,189,4.0,4.0,75,0.00,,,0.00,WeatherCatV1.14B232,2013-06-20 16:17:00,
2013-06-20 09:22:00,59.7,51.0,29.99,SW,217,1.0,4.0,73,0.00,,,0.00,WeatherCatV1.14B232,2013-06-20 16:22:00,
2013-06-20 09:27:00,59.8,51.1,29.99,SSW,210,2.0,5.0,73,0.00,,,0.00,WeatherCatV1.14B232,2013-06-20 16:27:00,
2013-06-20 09:32:00,60.1,51.8,29.99,SSW,195,1.0,3.0,74,0.00,,,0.00,WeatherCatV1.14B232,2013-06-20 16:32:00,
2013-06-20 09:37:00,60.3,51.2,29.99,WSW,243,4.0,6.0,72,0.00,,,0.00,WeatherCatV1.14B232,2013-06-20 16:37:00,
2013-06-20 09:42:00,60.7,51.2,29.99,SW,215,2.0,6.0,71,0.00,,,0.00,WeatherCatV1.14B232,2013-06-20 16:42:00,
2013-06-20 09:47:00,61.1,51.2,29.99,SW,220,2.0,5.0,70,0.00,,,0.00,WeatherCatV1.14B232,2013-06-20 16:47:00,
2013-06-20 09:52:00,61.7,51.4,29.99,SSW,198,2.0,5.0,69,0.00,,,0.00,WeatherCatV1.14B232,2013-06-20 16:52:00,
2013-06-20 09:57:00,62.0,51.3,29.99,WSW,244,3.0,5.0,68,0.00,,,0.00,WeatherCatV1.14B232,2013-06-20 16:57:00,
2013-06-20 10:02:00,62.2,50.7,29.99,WSW,238,3.0,5.0,66,0.00,,,0.00,WeatherCatV1.14B232,2013-06-20 17:02:00,
2013-06-20 10:07:00,62.3,50.4,29.99,SW,220,1.0,8.0,65,0.00,,,0.00,WeatherCatV1.14B232,2013-06-20 17:07:00,
2013-06-20 10:12:00,62.9,50.5,29.99,SW,236,2.0,5.0,64,0.00,,,0.00,WeatherCatV1.14B232,2013-06-20 17:12:00,
2013-06-20 10:17:00,63.3,50.1,29.99,WSW,247,6.0,7.0,62,0.00,,,0.00,WeatherCatV1.14B232,2013-06-20 17:17:00,
2013-06-20 10:22:00,63.6,49.9,29.99,SW,220,1.0,5.0,61,0.00,,,0.00,WeatherCatV1.14B232,2013-06-20 17:22:00,
2013-06-20 10:27:00,63.9,49.7,29.99,WSW,243,2.0,5.0,60,0.00,,,0.00,WeatherCatV1.14B232,2013-06-20 17:27:00,
2013-06-20 10:32:00,63.9,49.3,29.99,WSW,244,4.0,5.0,59,0.00,,,0.00,WeatherCatV1.14B232,2013-06-20 17:32:00,
2013-06-20 10:37:00,64.1,49.5,29.99,SW,226,4.0,6.0,59,0.00,,,0.00,WeatherCatV1.14B232,2013-06-20 17:37:00,
2013-06-20 10:42:00,64.0,48.9,29.99,WSW,244,4.0,6.0,58,0.00,,,0.00,WeatherCatV1.14B232,2013-06-20 17:42:00,
2013-06-20 10:47:00,64.0,49.4,29.98,WSW,247,5.0,6.0,59,0.00,,,0.00,WeatherCatV1.14B232,2013-06-20 17:47:00,
2013-06-20 10:52:00,63.9,49.7,29.99,SW,224,2.0,4.0,60,0.00,,,0.00,WeatherCatV1.14B232,2013-06-20 17:52:00,
2013-06-20 10:57:00,64.1,51.2,29.98,West,260,3.0,4.0,63,0.00,,,0.00,WeatherCatV1.14B232,2013-06-20 17:57:00,
2013-06-20 11:02:00,63.9,51.1,29.99,West,269,2.0,6.0,63,0.00,,,0.00,WeatherCatV1.14B232,2013-06-20 18:02:00,
2013-06-20 11:07:00,63.9,51.1,29.98,WSW,238,2.0,5.0,63,0.00,,,0.00,WeatherCatV1.14B232,2013-06-20 18:07:00,
2013-06-20 11:12:00,64.1,51.7,29.98,WSW,248,2.0,4.0,64,0.00,,,0.00,WeatherCatV1.14B232,2013-06-20 18:12:00,
2013-06-20 11:17:00,64.5,51.6,29.98,SW,218,1.0,4.0,63,0.00,,,0.00,WeatherCatV1.14B232,2013-06-20 18:17:00,
2013-06-20 11:22:00,65.0,51.2,29.99,WSW,258,4.0,5.0,61,0.00,,,0.00,WeatherCatV1.14B232,2013-06-20 18:22:00,
2013-06-20 11:27:00,65.4,51.6,29.99,WSW,251,2.0,4.0,61,0.00,,,0.00,WeatherCatV1.14B232,2013-06-20 18:27:00,
2013-06-20 11:32:00,66.2,51.4,29.99,WSW,238,3.0,4.0,59,0.00,,,0.00,WeatherCatV1.14B232,2013-06-20 18:32:00,
2013-06-20 11:37:00,66.8,52.0,29.98,SW,222,2.0,5.0,59,0.00,,,0.00,WeatherCatV1.14B232,2013-06-20 18:37:00,
2013-06-20 11:42:00,67.1,51.3,29.98,SW,231,3.0,6.0,57,0.00,,,0.00,WeatherCatV1.14B232,2013-06-20 18:42:00,
2013-06-20 11:47:00,67.7,51.9,29.98,WSW,256,4.0,4.0,57,0.00,,,0.00,WeatherCatV1.14B232,2013-06-20 18:47:00,
2013-06-20 11:52:00,68.3,51.5,29.98,SE,139,2.0,4.0,55,0.00,,,0.00,WeatherCatV1.14B232,2013-06-20 18:52:00,
2013-06-20 11:57:00,68.8,52.0,29.98,WSW,255,3.0,5.0,55,0.00,,,0.00,WeatherCatV1.14B232,2013-06-20 18:57:00,
2013-06-20 12:02:00,69.6,51.7,29.98,WSW,238,1.0,4.0,53,0.00,,,0.00,WeatherCatV1.14B232,2013-06-20 19:02:00,
2013-06-20 12:07:00,70.1,51.6,29.98,WSW,243,3.0,4.0,52,0.00,,,0.00,WeatherCatV1.14B232,2013-06-20 19:07:00,
2013-06-20 12:12:00,70.3,51.3,29.98,South,178,4.0,6.0,51,0.00,,,0.00,WeatherCatV1.14B232,2013-06-20 19:12:00,
2013-06-20 12:17:00,70.9,51.3,29.98,South,190,3.0,8.0,50,0.00,,,0.00,WeatherCatV1.14B232,2013-06-20 19:17:00,
2013-06-20 12:22:00,71.7,52.1,29.98,WSW,240,4.0,6.0,50,0.00,,,0.00,WeatherCatV1.14B232,2013-06-20 19:22:00,
2013-06-20 12:27:00,72.0,51.8,29.98,SW,218,5.0,7.0,49,0.00,,,0.00,WeatherCatV1.14B232,2013-06-20 19:27:00,
2013-06-20 12:32:00,72.4,51.6,29.97,West,271,5.0,6.0,48,0.00,,,0.00,WeatherCatV1.14B232,2013-06-20 19:32:00,
2013-06-20 12:37:00,72.1,51.3,29.97,WSW,250,5.0,6.0,48,0.00,,,0.00,WeatherCatV1.14B232,2013-06-20 19:37:00,
2013-06-20 12:42:00,72.3,51.5,29.97,SW,235,7.0,7.0,48,0.00,,,0.00,WeatherCatV1.14B232,2013-06-20 19:42:00,
2013-06-20 12:47:00,72.9,50.9,29.97,SW,223,6.0,6.0,46,0.00,,,0.00,WeatherCatV1.14B232,2013-06-20 19:47:00,
2013-06-20 12:53:00,72.8,51.4,29.97,SW,219,3.0,5.0,47,0.00,,,0.00,WeatherCatV1.14B232,2013-06-20 19:53:00,
2013-06-20 12:58:00,73.0,51.6,29.97,WSW,249,5.0,6.0,47,0.00,,,0.00,WeatherCatV1.14B232,2013-06-20 19:58:00,
2013-06-20 13:03:00,73.2,51.7,29.97,SW,231,5.0,8.0,47,0.00,,,0.00,WeatherCatV1.14B232,2013-06-20 20:03:00,
2013-06-20 13:08:00,73.4,51.3,29.97,WSW,255,6.0,9.0,46,0.00,,,0.00,WeatherCatV1.14B232,2013-06-20 20:08:00,
2013-06-20 13:13:00,73.5,50.8,29.97,WSW,253,7.0,9.0,45,0.00,,,0.00,WeatherCatV1.14B232,2013-06-20 20:13:00,
2013-06-20 13:18:00,74.0,51.9,29.97,WSW,247,9.0,11.0,46,0.00,,,0.00,WeatherCatV1.14B232,2013-06-20 20:18:00,
2013-06-20 13:23:00,73.3,50.7,29.96,WSW,258,7.0,9.0,45,0.00,,,0.00,WeatherCatV1.14B232,2013-06-20 20:23:00,
2013-06-20 13:28:00,73.9,51.8,29.96,WSW,257,9.0,10.0,46,0.00,,,0.00,WeatherCatV1.14B232,2013-06-20 20:28:00,
2013-06-20 13:33:00,73.8,50.5,29.96,SW,236,10.0,11.0,44,0.00,,,0.00,WeatherCatV1.14B232,2013-06-20 20:33:00,
2013-06-20 13:38:00,73.3,50.7,29.96,SW,226,9.0,10.0,45,0.00,,,0.00,WeatherCatV1.14B232,2013-06-20 20:38:00,
2013-06-20 13:43:00,74.1,50.2,29.96,WSW,256,5.0,9.0,43,0.00,,,0.00,WeatherCatV1.14B232,2013-06-20 20:43:00,
2013-06-20 13:48:00,74.4,50.4,29.96,SW,219,8.0,9.0,43,0.00,,,0.00,WeatherCatV1.14B232,2013-06-20 20:48:00,
2013-06-20 13:53:00,74.8,50.8,29.96,WSW,257,6.0,10.0,43,0.00,,,0.00,WeatherCatV1.14B232,2013-06-20 20:53:00,
2013-06-20 13:58:00,74.9,50.2,29.96,SSW,200,6.0,10.0,42,0.00,,,0.00,WeatherCatV1.14B232,2013-06-20 20:58:00,
2013-06-20 14:03:00,75.0,49.7,29.96,WSW,254,6.0,13.0,41,0.00,,,0.00,WeatherCatV1.14B232,2013-06-20 21:03:00,
2013-06-20 14:08:00,74.4,49.1,29.95,WSW,244,10.0,14.0,41,0.00,,,0.00,WeatherCatV1.14B232,2013-06-20 21:08:00,
2013-06-20 14:13:00,74.2,49.0,29.95,WSW,255,8.0,14.0,41,0.00,,,0.00,WeatherCatV1.14B232,2013-06-20 21:13:00,
2013-06-20 14:18:00,73.5,49.6,29.96,WSW,257,7.0,12.0,43,0.00,,,0.00,WeatherCatV1.14B232,2013-06-20 21:18:00,
2013-06-20 14:23:00,74.3,50.3,29.96,West,262,8.0,12.0,43,0.00,,,0.00,WeatherCatV1.14B232,2013-06-20 21:23:00,
2013-06-20 14:28:00,74.3,51.6,29.96,WSW,245,7.0,14.0,45,0.00,,,0.00,WeatherCatV1.14B232,2013-06-20 21:28:00,
2013-06-20 14:33:00,74.5,51.1,29.95,WSW,253,7.0,12.0,44,0.00,,,0.00,WeatherCatV1.14B232,2013-06-20 21:33:00,
2013-06-20 14:38:00,74.7,51.3,29.95,WSW,256,6.0,12.0,44,0.00,,,0.00,WeatherCatV1.14B232,2013-06-20 21:38:00,
2013-06-20 14:43:00,74.8,51.4,29.95,WSW,256,5.0,11.0,44,0.00,,,0.00,WeatherCatV1.14B232,2013-06-20 21:43:00,
2013-06-20 14:48:00,74.5,51.1,29.95,West,264,7.0,8.0,44,0.00,,,0.00,WeatherCatV1.14B232,2013-06-20 21:48:00,
2013-06-20 14:53:00,74.7,51.9,29.95,West,262,4.0,5.0,45,0.00,,,0.00,WeatherCatV1.14B232,2013-06-20 21:53:00,
2013-06-20 14:58:00,74.9,50.9,29.95,WSW,245,0.0,4.0,43,0.00,,,0.00,WeatherCatV1.14B232,2013-06-20 21:58:00,
2013-06-20 15:03:00,75.6,52.1,29.96,WSW,250,5.0,5.0,44,0.00,,,0.00,WeatherCatV1.14B232,2013-06-20 22:03:00,
2013-06-20 15:08:00,76.0,51.2,29.96,SW,219,0.0,4.0,42,0.00,,,0.00,WeatherCatV1.14B232,2013-06-20 22:08:00,
2013-06-20 15:13:00,77.1,52.2,29.95,SSW,203,3.0,3.0,42,0.00,,,0.00,WeatherCatV1.14B232,2013-06-20 22:13:00,
2013-06-20 15:18:00,78.8,53.1,29.95,NE,34,0.0,3.0,41,0.00,,,0.00,WeatherCatV1.14B232,2013-06-20 22:18:00,
2013-06-20 15:23:00,79.5,50.9,29.95,NNE,27,1.0,2.0,37,0.00,,,0.00,WeatherCatV1.14B232,2013-06-20 22:23:00,
2013-06-20 15:28:00,79.4,51.6,29.95,SW,215,3.0,3.0,38,0.00,,,0.00,WeatherCatV1.14B232,2013-06-20 22:28:00,
2013-06-20 15:33:00,79.9,53.4,29.95,WNW,298,0.0,0.0,40,0.00,,,0.00,WeatherCatV1.14B232,2013-06-20 22:33:00,
2013-06-20 15:38:00,80.2,52.3,29.95,SW,236,0.0,2.0,38,0.00,,,0.00,WeatherCatV1.14B232,2013-06-20 22:38:00,
2013-06-20 15:43:00,80.3,51.6,29.95,SSW,196,3.0,4.0,37,0.00,,,0.00,WeatherCatV1.14B232,2013-06-20 22:43:00,
2013-06-20 15:48:00,80.2,50.0,29.95,SE,128,0.0,1.0,35,0.00,,,0.00,WeatherCatV1.14B232,2013-06-20 22:48:00,
2013-06-20 15:53:00,80.6,47.1,29.95,SW,235,0.0,3.0,31,0.00,,,0.00,WeatherCatV1.14B232,2013-06-20 22:53:00,
2013-06-20 15:58:00,80.7,48.9,29.95,SSW,200,0.0,2.0,33,0.00,,,0.00,WeatherCatV1.14B232,2013-06-20 22:58:00,
2013-06-20 16:03:00,80.7,46.4,29.95,WSW,251,0.0,4.0,30,0.00,,,0.00,WeatherCatV1.14B232,2013-06-20 23:03:00,
2013-06-20 16:08:00,81.0,47.5,29.95,SW,236,0.0,1.0,31,0.00,,,0.00,WeatherCatV1.14B232,2013-06-20 23:08:00,
2013-06-20 16:13:00,81.3,46.0,29.95,WSW,243,1.0,2.0,29,0.00,,,0.00,WeatherCatV1.14B232,2013-06-20 23:13:00,
2013-06-20 16:18:00,81.2,45.9,29.95,WSW,250,0.0,1.0,29,0.00,,,0.00,WeatherCatV1.14B232,2013-06-20 23:18:00,
2013-06-20 16:23:00,81.5,47.0,29.95,NE,37,1.0,1.0,30,0.00,,,0.00,WeatherCatV1.14B232,2013-06-20 23:23:00,
2013-06-20 16:28:00,80.8,50.6,29.95,SW,220,1.0,2.0,35,0.00,,,0.00,WeatherCatV1.14B232,2013-06-20 23:28:00,
2013-06-20 16:33:00,80.1,50.7,29.95,SW,225,1.0,4.0,36,0.00,,,0.00,WeatherCatV1.14B232,2013-06-20 23:33:00,
2013-06-20 16:38:00,79.9,50.5,29.95,SSE,153,0.0,2.0,36,0.00,,,0.00,WeatherCatV1.14B232,2013-06-20 23:38:00,
2013-06-20 16:43:00,79.7,48.0,29.95,WSW,245,0.0,3.0,33,0.00,,,0.00,WeatherCatV1.14B232,2013-06-20 23:43:00,
2013-06-20 16:48:00,79.4,49.3,29.95,SW,229,0.0,3.0,35,0.00,,,0.00,WeatherCatV1.14B232,2013-06-20 23:48:00,
2013-06-20 16:53:00,79.8,48.9,29.95,SSW,207,3.0,4.0,34,0.00,,,0.00,WeatherCatV1.14B232,2013-06-20 23:53:00,
2013-06-20 16:58:00,79.3,48.5,29.95,WSW,244,1.0,5.0,34,0.00,,,0.00,WeatherCatV1.14B232,2013-06-20 23:58:00,
2013-06-20 17:03:00,78.7,50.2,29.95,WSW,243,2.0,4.0,37,0.00,,,0.00,WeatherCatV1.14B232,2013-06-21 00:03:00,
2013-06-20 17:08:00,78.2,50.5,29.95,WSW,252,2.0,6.0,38,0.00,,,0.00,WeatherCatV1.14B232,2013-06-21 00:08:00,
2013-06-20 17:13:00,77.8,49.4,29.95,SW,236,1.0,4.0,37,0.00,,,0.00,WeatherCatV1.14B232,2013-06-21 00:13:00,
2013-06-20 17:18:00,78.2,49.0,29.95,South,172,1.0,3.0,36,0.00,,,0.00,WeatherCatV1.14B232,2013-06-21 00:18:00,
2013-06-20 17:23:00,78.2,49.8,29.95,SW,218,1.0,4.0,37,0.00,,,0.00,WeatherCatV1.14B232,2013-06-21 00:23:00,
2013-06-20 17:28:00,77.2,48.9,29.95,SW,220,2.0,3.0,37,0.00,,,0.00,WeatherCatV1.14B232,2013-06-21 00:28:00,
2013-06-20 17:33:00,76.9,49.3,29.95,SW,232,0.0,0.0,38,0.00,,,0.00,WeatherCatV1.14B232,2013-06-21 00:33:00,
2013-06-20 17:38:00,76.7,49.2,29.95,SW,234,0.0,1.0,38,0.00,,,0.00,WeatherCatV1.14B232,2013-06-21 00:38:00,
2013-06-20 17:43:00,76.3,48.8,29.95,WSW,251,1.0,3.0,38,0.00,,,0.00,WeatherCatV1.14B232,2013-06-21 00:43:00,
2013-06-20 17:48:00,75.8,48.4,29.94,WSW,250,3.0,5.0,38,0.00,,,0.00,WeatherCatV1.14B232,2013-06-21 00:48:00,
2013-06-20 17:53:00,75.3,47.9,29.95,WSW,248,3.0,8.0,38,0.00,,,0.00,WeatherCatV1.14B232,2013-06-21 00:53:00,
2013-06-20 17:58:00,74.3,47.7,29.94,WSW,257,4.0,7.0,39,0.00,,,0.00,WeatherCatV1.14B232,2013-06-21 00:58:00,
2013-06-20 18:03:00,73.5,47.7,29.94,SW,226,4.0,6.0,40,0.00,,,0.00,WeatherCatV1.14B232,2013-06-21 01:03:00,
2013-06-20 18:08:00,73.0,47.2,29.94,WSW,245,4.0,7.0,40,0.00,,,0.00,WeatherCatV1.14B232,2013-06-21 01:08:00,
2013-06-20 18:13:00,72.6,48.2,29.94,SW,225,3.0,7.0,42,0.00,,,0.00,WeatherCatV1.14B232,2013-06-21 01:13:00,
2013-06-20 18:18:00,71.9,47.5,29.94,WSW,246,0.0,2.0,42,0.00,,,0.00,WeatherCatV1.14B232,2013-06-21 01:18:00,
2013-06-20 18:23:00,71.8,47.5,29.94,WSW,249,0.0,0.0,42,0.00,,,0.00,WeatherCatV1.14B232,2013-06-21 01:23:00,
2013-06-20 18:28:00,72.5,48.7,29.94,WSW,248,3.0,5.0,43,0.00,,,0.00,WeatherCatV1.14B232,2013-06-21 01:28:00,
2013-06-20 18:33:00,72.4,48.0,29.94,SW,229,2.0,3.0,42,0.00,,,0.00,WeatherCatV1.14B232,2013-06-21 01:33:00,
2013-06-20 18:38:00,71.8,48.1,29.94,SW,231,1.0,3.0,43,0.00,,,0.00,WeatherCatV1.14B232,2013-06-21 01:38:00,
2013-06-20 18:43:00,71.5,48.4,29.94,SW,232,3.0,5.0,44,0.00,,,0.00,WeatherCatV1.14B232,2013-06-21 01:43:00,
2013-06-20 18:48:00,70.8,49.0,29.94,SW,224,5.0,8.0,46,0.00,,,0.00,WeatherCatV1.14B232,2013-06-21 01:48:00,
2013-06-20 18:53:00,70.3,48.5,29.94,SW,236,3.0,5.0,46,0.00,,,0.00,WeatherCatV1.14B232,2013-06-21 01:53:00,
2013-06-20 18:58:00,69.7,48.0,29.94,WSW,245,2.0,5.0,46,0.00,,,0.00,WeatherCatV1.14B232,2013-06-21 01:58:00,
2013-06-20 19:03:00,69.7,48.0,29.94,WSW,247,2.0,3.0,46,0.00,,,0.00,WeatherCatV1.14B232,2013-06-21 02:03:00,
2013-06-20 19:08:00,69.7,48.0,29.94,SW,221,0.0,1.0,46,0.00,,,0.00,WeatherCatV1.14B232,2013-06-21 02:08:00,
2013-06-20 19:13:00,70.0,48.3,29.94,WSW,240,2.0,2.0,46,0.00,,,0.00,WeatherCatV1.14B232,2013-06-21 02:13:00,
2013-06-20 19:18:00,70.2,49.6,29.94,NNE,25,1.0,1.0,48,0.00,,,0.00,WeatherCatV1.14B232,2013-06-21 02:18:00,
2013-06-20 19:23:00,70.2,49.0,29.94,NNE,29,0.0,1.0,47,0.00,,,0.00,WeatherCatV1.14B232,2013-06-21 02:23:00,
2013-06-20 19:28:00,69.7,49.1,29.94,NE,34,0.0,1.0,48,0.00,,,0.00,WeatherCatV1.14B232,2013-06-21 02:28:00,
2013-06-20 19:33:00,69.2,48.7,29.94,WSW,239,1.0,1.0,48,0.00,,,0.00,WeatherCatV1.14B232,2013-06-21 02:33:00,
2013-06-20 19:38:00,68.6,48.7,29.94,SSW,211,0.0,2.0,49,0.00,,,0.00,WeatherCatV1.14B232,2013-06-21 02:38:00,
2013-06-20 19:43:00,68.0,49.7,29.94,WSW,246,2.0,3.0,52,0.00,,,0.00,WeatherCatV1.14B232,2013-06-21 02:43:00,
2013-06-20 19:48:00,67.5,49.2,29.94,WSW,245,0.0,1.0,52,0.00,,,0.00,WeatherCatV1.14B232,2013-06-21 02:48:00,
2013-06-20 19:53:00,67.2,49.0,29.95,SW,217,0.0,0.0,52,0.00,,,0.00,WeatherCatV1.14B232,2013-06-21 02:53:00,
2013-06-20 19:58:00,66.9,49.2,29.95,SW,217,0.0,0.0,53,0.00,,,0.00,WeatherCatV1.14B232,2013-06-21 02:58:00,
2013-06-20 20:03:00,66.5,48.8,29.95,SW,219,0.0,1.0,53,0.00,,,0.00,WeatherCatV1.14B232,2013-06-21 03:03:00,
2013-06-20 20:08:00,66.1,48.5,29.95,SW,229,0.0,1.0,53,0.00,,,0.00,WeatherCatV1.14B232,2013-06-21 03:08:00,
2013-06-20 20:13:00,65.6,48.5,29.95,NNW,337,0.0,1.0,54,0.00,,,0.00,WeatherCatV1.14B232,2013-06-21 03:13:00,
2013-06-20 20:18:00,65.2,48.1,29.95,NNE,23,0.0,1.0,54,0.00,,,0.00,WeatherCatV1.14B232,2013-06-21 03:18:00,
2013-06-20 20:23:00,64.9,48.3,29.95,NNE,23,0.0,1.0,55,0.00,,,0.00,WeatherCatV1.14B232,2013-06-21 03:23:00,
2013-06-20 20:28:00,64.5,48.4,29.95,NNE,20,0.0,0.0,56,0.00,,,0.00,WeatherCatV1.14B232,2013-06-21 03:28:00,
2013-06-20 20:33:00,64.3,48.3,29.95,NNE,20,0.0,1.0,56,0.00,,,0.00,WeatherCatV1.14B232,2013-06-21 03:33:00,
2013-06-20 20:38:00,64.0,48.0,29.95,WNW,286,0.0,0.0,56,0.00,,,0.00,WeatherCatV1.14B232,2013-06-21 03:38:00,
2013-06-20 20:43:00,63.7,48.2,29.95,North,352,0.0,0.0,57,0.00,,,0.00,WeatherCatV1.14B232,2013-06-21 03:43:00,
2013-06-20 20:48:00,63.4,48.4,29.95,North,352,0.0,0.0,58,0.00,,,0.00,WeatherCatV1.14B232,2013-06-21 03:48:00,
2013-06-20 20:53:00,62.9,47.9,29.95,North,351,0.0,1.0,58,0.00,,,0.00,WeatherCatV1.14B232,2013-06-21 03:53:00,
2013-06-20 20:58:00,62.5,48.0,29.95,SW,214,1.0,2.0,59,0.00,,,0.00,WeatherCatV1.14B232,2013-06-21 03:58:00,
2013-06-20 21:01:00,62.3,48.2,29.95,SW,214,0.0,0.0,60,0.00,,,0.00,WeatherCatV1.14B232,2013-06-21 04:01:00,
2013-06-20 21:06:00,62.0,48.0,29.95,South,190,0.0,0.0,60,0.00,,,0.00,WeatherCatV1.14B232,2013-06-21 04:06:00,
2013-06-20 21:07:00,61.9,47.9,29.95,South,190,0.0,0.0,60,0.00,,,0.00,WeatherCatV1.14B232,2013-06-21 04:07:00,
2013-06-20 21:12:00,61.7,48.1,29.95,South,181,0.0,1.0,61,0.00,,,0.00,WeatherCatV1.14B232,2013-06-21 04:12:00,
2013-06-20 21:17:00,61.6,47.6,29.95,South,191,0.0,0.0,60,0.00,,,0.00,WeatherCatV1.14B232,2013-06-21 04:17:00,
2013-06-20 21:22:00,61.6,48.0,29.96,SW,224,0.0,1.0,61,0.00,,,0.00,WeatherCatV1.14B232,2013-06-21 04:22:00,
2013-06-20 21:27:00,61.5,47.9,29.96,SSW,195,0.0,2.0,61,0.00,,,0.00,WeatherCatV1.14B232,2013-06-21 04:27:00,
2013-06-20 21:32:00,61.3,47.7,29.96,SW,229,1.0,3.0,61,0.00,,,0.00,WeatherCatV1.14B232,2013-06-21 04:32:00,
2013-06-20 21:37:00,61.2,48.1,29.96,SW,232,0.0,1.0,62,0.00,,,0.00,WeatherCatV1.14B232,2013-06-21 04:37:00,
2013-06-20 21:38:00,61.1,48.4,29.96,SW,222,0.0,1.0,63,0.00,,,0.00,WeatherCatV1.14B232,2013-06-21 04:38:00,
2013-06-20 21:43:00,61.0,48.3,29.96,WSW,238,0.0,0.0,63,0.00,,,0.00,WeatherCatV1.14B232,2013-06-21 04:43:00,
2013-06-20 21:48:00,60.8,48.5,29.97,SW,235,0.0,1.0,64,0.00,,,0.00,WeatherCatV1.14B232,2013-06-21 04:48:00,
2013-06-20 21:53:00,60.6,47.9,29.97,SW,235,0.0,0.0,63,0.00,,,0.00,WeatherCatV1.14B232,2013-06-21 04:53:00,
2013-06-20 21:58:00,60.4,48.2,29.97,SW,235,0.0,0.0,64,0.00,,,0.00,WeatherCatV1.14B232,2013-06-21 04:58:00,
2013-06-20 22:03:00,60.3,48.1,29.97,SW,235,0.0,0.0,64,0.00,,,0.00,WeatherCatV1.14B232,2013-06-21 05:03:00,
2013-06-20 22:08:00,60.2,48.0,29.97,SW,235,0.0,0.0,64,0.00,,,0.00,WeatherCatV1.14B232,2013-06-21 05:08:00,
2013-06-20 22:13:00,60.0,47.8,29.97,SW,235,0.0,0.0,64,0.00,,,0.00,WeatherCatV1.14B232,2013-06-21 05:13:00,
2013-06-20 22:18:00,59.8,47.6,29.97,SW,226,0.0,1.0,64,0.00,,,0.00,WeatherCatV1.14B232,2013-06-21 05:18:00,
2013-06-20 22:23:00,59.9,47.7,29.97,SW,226,0.0,0.0,64,0.00,,,0.00,WeatherCatV1.14B232,2013-06-21 05:23:00,
2013-06-20 22:28:00,59.7,47.5,29.97,SW,226,0.0,0.0,64,0.00,,,0.00,WeatherCatV1.14B232,2013-06-21 05:28:00,
2013-06-20 22:33:00,59.5,47.7,29.97,SW,226,0.0,0.0,65,0.00,,,0.00,WeatherCatV1.14B232,2013-06-21 05:33:00,
2013-06-20 22:38:00,59.5,47.7,29.97,SW,226,0.0,0.0,65,0.00,,,0.00,WeatherCatV1.14B232,2013-06-21 05:38:00,
2013-06-20 22:43:00,59.5,48.1,29.97,SW,227,0.0,0.0,66,0.00,,,0.00,WeatherCatV1.14B232,2013-06-21 05:43:00,
2013-06-20 22:44:00,59.4,48.0,29.97,SW,227,0.0,0.0,66,0.00,,,0.00,WeatherCatV1.14B232,2013-06-21 05:44:00,
2013-06-20 22:49:00,59.4,48.4,29.97,SW,226,0.0,0.0,67,0.00,,,0.00,WeatherCatV1.14B232,2013-06-21 05:49:00,
2013-06-20 22:54:00,59.4,48.0,29.97,SW,226,0.0,0.0,66,0.00,,,0.00,WeatherCatV1.14B232,2013-06-21 05:54:00,
2013-06-20 22:59:00,59.5,48.1,29.97,SW,227,0.0,0.0,66,0.00,,,0.00,WeatherCatV1.14B232,2013-06-21 05:59:00,
2013-06-20 23:04:00,59.6,48.2,29.97,SW,227,0.0,0.0,66,0.00,,,0.00,WeatherCatV1.14B232,2013-06-21 06:04:00,
2013-06-20 23:09:00,59.9,48.5,29.97,SW,227,0.0,0.0,66,0.00,,,0.00,WeatherCatV1.14B232,2013-06-21 06:09:00,
2013-06-20 23:16:00,60.0,48.6,29.97,SW,228,0.0,0.0,66,0.00,,,0.00,WeatherCatV1.14B232,2013-06-21 06:16:00,
2013-06-20 23:21:00,60.0,49.4,29.97,NE,37,0.0,1.0,68,0.00,,,0.00,WeatherCatV1.14B232,2013-06-21 06:21:00,
2013-06-20 23:26:00,60.0,49.0,29.97,NE,37,0.0,0.0,67,0.00,,,0.00,WeatherCatV1.14B232,2013-06-21 06:26:00,
2013-06-20 23:31:00,60.0,49.4,29.97,NE,37,0.0,0.0,68,0.00,,,0.00,WeatherCatV1.14B232,2013-06-21 06:31:00,
2013-06-20 23:36:00,59.9,49.3,29.97,NE,37,0.0,0.0,68,0.00,,,0.00,WeatherCatV1.14B232,2013-06-21 06:36:00,
2013-06-20 23:41:00,59.8,49.2,29.97,NE,37,0.0,0.0,68,0.00,,,0.00,WeatherCatV1.14B232,2013-06-21 06:41:00,
2013-06-20 23:46:00,59.7,49.1,29.97,NE,37,0.0,0.0,68,0.00,,,0.00,WeatherCatV1.14B232,2013-06-21 06:46:00,
2013-06-20 23:51:00,59.6,49.0,29.96,NE,37,0.0,0.0,68,0.00,,,0.00,WeatherCatV1.14B232,2013-06-21 06:51:00,
2013-06-20 23:56:00,59.7,49.1,29.96,NE,37,0.0,1.0,68,0.00,,,0.00,WeatherCatV1.14B232,2013-06-21 06:56:00,